X  Close Clear throughout the day.
Conditions Temperature Feels Precipitation Wind Wind Direction UV index Pressure
12:00 partly-cloudy-day Partly Cloudy 28° - 8-16 km/h South South uv-5 1019,0
13:00 partly-cloudy-day Partly Cloudy 29° - 9-15 km/h South South uv-6 1018,6
14:00 clear-day Clear 31° - 9-14 km/h South South uv-6 1018,4
15:00 clear-day Clear 32° - 9-13 km/h South South uv-6 1018,3
16:00 clear-day Clear 32° - 9-12 km/h SSE SSE uv-5 1018,1
17:00 clear-day Clear 33° - 9-11 km/h SSE SSE uv-4 1018,0
18:00 clear-day Clear 32° - 8-11 km/h SSE SSE uv-2 1017,7
19:00 clear-day Clear 32° - 7-12 km/h SSE SSE uv-1 1017,5
20:00 clear-day Clear 31° - 7-12 km/h SE SE - 1017,4
21:00 partly-cloudy-day Partly Cloudy 29° - 7-14 km/h SE SE - 1017,5
22:00 partly-cloudy-night Partly Cloudy 27° - 8-15 km/h SE SE - 1018,4
23:00 partly-cloudy-night Mostly Cloudy 25° 0.01 mm 1% 8-16 km/h SE SE - 1018,8
00:00 partly-cloudy-night Mostly Cloudy 23° - 8-15 km/h SE SE - 1019,0
01:00 partly-cloudy-night Partly Cloudy 22° - 8-13 km/h SE SE - 1018,3
02:00 partly-cloudy-night Partly Cloudy 22° - 8-12 km/h SSE SSE - 1018,4
03:00 clear-night Clear 21° - 8-11 km/h SSE SSE - 1018,3
04:00 clear-night Clear 20° - 8-10 km/h SSE SSE - 1019,0
05:00 clear-night Clear 20° - 8-10 km/h SSE SSE - 1019,0
06:00 clear-night Clear 20° - 8-9 km/h SSE SSE - 1019,1
07:00 clear-day Clear 21° - 8-9 km/h SSE SSE - 1018,6
08:00 clear-day Clear 22° - 9-9 km/h SSE SSE - 1018,9
09:00 clear-day Clear 24° - 9-10 km/h SSE SSE uv-1 1019,1
10:00 clear-day Clear 27° - 9-11 km/h SSE SSE uv-3 1019,8
11:00 clear-day Clear 30° - 10-12 km/h SSE SSE uv-4 1019,8
12:00 clear-day Clear 31° - 10-14 km/h SE SE uv-6 1019,5
13:00 clear-day Clear 32° - 11-14 km/h SE SE uv-7 1018,6
14:00 clear-day Clear 32° - 11-15 km/h ESE ESE uv-7 1018,2
15:00 clear-day Clear 33° - 10-13 km/h ESE ESE uv-7 1018,1
16:00 clear-day Clear 34° - 9-11 km/h ESE ESE uv-6 1018,1
17:00 clear-day Clear 34° 0.01 mm 1% 9-10 km/h ESE ESE uv-4 1017,6
18:00 clear-day Clear 34° 0.01 mm 1% 9-12 km/h East Easterly uv-2 1017,4
19:00 clear-day Clear 34° - 9-15 km/h East Easterly uv-1 1017,0
20:00 clear-day Clear 33° - 9-17 km/h East Easterly - 1016,3
21:00 clear-day Clear 31° - 9-17 km/h East Easterly - 1016,6
22:00 clear-night Clear 29° - 9-17 km/h East Easterly - 1016,9
23:00 clear-night Clear 27° - 9-16 km/h East Easterly - 1017,3
00:00 clear-night Clear 25° - 9-15 km/h East Easterly - 1017,4
01:00 clear-night Clear 24° - 8-13 km/h ESE ESE - 1017,4
02:00 clear-night Clear 24° - 8-11 km/h ESE ESE - 1017,4
03:00 clear-night Clear 23° - 7-10 km/h ESE ESE - 1017,3
04:00 clear-night Clear 22° - 6-8 km/h ESE ESE - 1017,8
05:00 clear-night Clear 22° - 5-7 km/h SE SE - 1017,9
06:00 clear-night Clear 22° - 5-7 km/h SE SE - 1017,8
07:00 clear-day Clear 22° - 6-6 km/h SE SE - 1017,5
08:00 clear-day Clear 23° - 6-6 km/h SE SE - 1017,7
09:00 clear-day Clear 25° - 6-7 km/h SE SE uv-1 1017,9
10:00 clear-day Clear 28° - 5-8 km/h SE SE uv-3 1018,6
11:00 clear-day Clear 31° - 5-9 km/h ESE ESE uv-5 1018,6
12:00 clear-day Clear 32° - 6-9 km/h ESE ESE uv-6 1018,4